Home   Weather   Stroudsburg   Past weeks

Flag for USA Past Weather in Stroudsburg, Pennsylvania, USA — Yesterday and Last 2 Weeks

Now
38 °F

Sunny.


Feels Like: 31 °F
Forecast: 30 / 43 °F
Wind: 10 mph from Northwest

Location: Pocono Mountains Municipal Airport

Current Time: Dec 4, 2016 at 1:35:01 pm

Latest Report: Dec 4, 2016 at 12:53 pm


Visibility: 10 mi

Pressure: 30.20 "Hg

Humidity: 48%

Dew Point: 20 °F

Location of StroudsburgLocation

Past Weather in Stroudsburg — Graph

°F

Stroudsburg Temperature Yesterday

Maximum temperature yesterday: 37 °F (at 1:53 pm)
Minimum temperature yesterday: 32 °F (at 4:53 am)
Average temperature yesterday: 34 °F

High & Low Weather Summary for the Past Weeks

 TemperatureHumidityPressure
High60 °F (Nov 19, 1:53 pm)100% (Nov 25, 7:53 am)30.32 "Hg (Nov 25, 7:53 am)
Low21 °F (Nov 28, 2:53 am)42% (Nov 23, 12:53 pm)29.48 "Hg (Dec 1, 1:53 am)
Average35 °F78%29.98 "Hg
* Reported Nov 19 11:53 am — Dec 4 11:53 am, Stroudsburg, Weather by CustomWeather, © 2016

Note: Actual official high and low records may vary slightly from our data, if they occured in-between our weather recording intervals... More about our weather records

Advertising

Stroudsburg Weather History for the Previous 24 Hours

Scroll right to see more
 ConditionsComfort  
Time TempWeatherWind HumidityBarometerVisibility
11:53 am
Sun, Dec 4
36 °FSunny.12 mph54%30.21 "Hg10 mi
10:53 am36 °FSunny.10 mph54%30.23 "Hg10 mi
9:53 am33 °FSunny.12 mph58%30.23 "Hg10 mi
8:53 am32 °FPassing clouds.12 mph64%30.23 "Hg10 mi
7:53 am30 °FPartly sunny.12 mph75%30.20 "Hg10 mi
6:53 am31 °FOvercast.12 mph73%30.21 "Hg10 mi
5:53 am31 °FOvercast.9 mph76%30.19 "Hg10 mi
4:53 am31 °FOvercast.8 mph73%30.19 "Hg10 mi
3:53 am31 °FOvercast.7 mph76%30.19 "Hg10 mi
2:53 am31 °FOvercast.6 mph73%30.20 "Hg10 mi
1:53 am32 °FOvercast.9 mph66%30.19 "Hg10 mi
12:53 am32 °FOvercast.18 mph64%30.19 "Hg10 mi
11:53 pm
Sat, Dec 3
32 °FOvercast.15 mph64%30.19 "Hg10 mi
10:53 pm32 °FOvercast.18 mph69%30.15 "Hg10 mi
9:53 pm33 °FOvercast.15 mph70%30.14 "Hg10 mi
8:53 pm34 °FOvercast.14 mph67%30.12 "Hg10 mi
7:53 pm35 °FOvercast.16 mph61%30.12 "Hg10 mi
6:53 pm35 °FOvercast.15 mph64%30.12 "Hg10 mi
5:53 pm35 °FOvercast.18 mph64%30.12 "Hg10 mi
4:53 pm35 °FPassing clouds.17 mph67%30.11 "Hg10 mi
3:53 pm35 °FMostly cloudy.16 mph67%30.11 "Hg10 mi
2:53 pm36 °FMore clouds than sun.17 mph64%30.06 "Hg10 mi
1:53 pm37 °FMore clouds than sun.17 mph62%30.05 "Hg10 mi
Weather by CustomWeather, © 2016

See weather overviewHow to use our weather pages